SWR0227 EHAM-LSZH

Flight info

Callsign SWR0227
Flight time 1h 22m
Altitude 35000
Route EDUPO Z739 MISGO DCT ASBON DCT TUSUK DCT LAMGO/N0449F270 T721 SUL/N0436F250 T721 RILAX
Aircraft A321/M-SDE3FGHIRWY/LB1

Departure

Time 2026-05-05 18:52
Airport Amsterdam Airport Schiphol (EHAM)

Arrival

Time 2026-05-05 20:15
Airport Zürich Airport (LSZH)
Time Latitude Longitude Altitude Speed Heading
2026-05-05 18:14 52.30307 4.76233 2 ft 0 kts 58°
2026-05-05 18:40 52.30307 4.76232 2 ft 0 kts 58°
2026-05-05 18:40 52.30306 4.76228 2 ft 2 kts 58°
2026-05-05 18:40 52.30300 4.76204 2 ft 2 kts 89°
2026-05-05 18:41 52.30302 4.76179 2 ft 2 kts 111°
2026-05-05 18:41 52.30309 4.76159 2 ft 2 kts 131°
2026-05-05 18:41 52.30316 4.76148 2 ft 0 kts 146°
2026-05-05 18:41 52.30322 4.76142 2 ft 0 kts 148°
2026-05-05 18:44 52.30302 4.76162 2 ft 6 kts 148°
2026-05-05 18:44 52.30262 4.76203 1 ft 9 kts 148°
2026-05-05 18:45 52.30203 4.76247 0 ft 12 kts 191°
2026-05-05 18:45 52.30150 4.76143 0 ft 15 kts 239°
2026-05-05 18:45 52.30092 4.75992 1 ft 18 kts 237°
2026-05-05 18:45 52.30024 4.75814 0 ft 22 kts 240°
2026-05-05 18:46 52.29948 4.75616 0 ft 23 kts 238°
2026-05-05 18:46 52.29870 4.75414 0 ft 23 kts 238°
2026-05-05 18:46 52.29846 4.75186 1 ft 22 kts 300°
2026-05-05 18:46 52.29942 4.75007 2 ft 22 kts 311°
2026-05-05 18:47 52.30042 4.74826 1 ft 23 kts 310°
2026-05-05 18:47 52.30142 4.74636 -3 ft 25 kts 311°
2026-05-05 18:47 52.30254 4.74425 -8 ft 26 kts 306°
2026-05-05 18:47 52.30361 4.74226 -12 ft 18 kts 307°
2026-05-05 18:48 52.30344 4.74062 -11 ft 17 kts 227°
2026-05-05 18:48 52.30296 4.74000 -11 ft 0 kts 216°
2026-05-05 18:49 52.30284 4.73985 -11 ft 4 kts 216°
2026-05-05 18:49 52.30251 4.73946 -12 ft 8 kts 216°
2026-05-05 18:49 52.30204 4.73889 -11 ft 10 kts 223°
2026-05-05 18:50 52.30190 4.73782 -9 ft 10 kts 298°
2026-05-05 18:50 52.30250 4.73740 -8 ft 11 kts
2026-05-05 18:50 52.30285 4.73742 -8 ft 0 kts
2026-05-05 18:51 52.30287 4.73742 -8 ft 1 kts
2026-05-05 18:51 52.30465 4.73758 -8 ft 60 kts
2026-05-05 18:51 52.31004 4.73808 -6 ft 116 kts
2026-05-05 18:52 52.31890 4.73896 20 ft 161 kts
2026-05-05 18:52 52.32945 4.73985 683 ft 155 kts
2026-05-05 18:52 52.33901 4.74281 1255 ft 155 kts 22°
2026-05-05 18:52 52.34786 4.74859 1839 ft 156 kts 23°
2026-05-05 18:53 52.35704 4.75488 2201 ft 164 kts 24°
2026-05-05 18:53 52.36769 4.76227 2488 ft 177 kts 24°
2026-05-05 18:53 52.37783 4.77121 2736 ft 188 kts 35°
2026-05-05 18:53 52.38664 4.78321 2921 ft 204 kts 44°
2026-05-05 18:54 52.39560 4.79797 3186 ft 217 kts 45°
2026-05-05 18:54 52.40539 4.81468 3473 ft 232 kts 46°
2026-05-05 18:54 52.41550 4.83247 3827 ft 243 kts 51°
2026-05-05 18:54 52.42271 4.85548 4330 ft 252 kts 73°
2026-05-05 18:55 52.42445 4.88129 4916 ft 257 kts 87°
2026-05-05 18:55 52.42444 4.90890 5505 ft 261 kts 89°
2026-05-05 18:55 52.42432 4.93611 6081 ft 266 kts 89°
2026-05-05 18:55 52.42406 4.96280 6643 ft 270 kts 94°
2026-05-05 18:56 52.41933 4.98949 7164 ft 278 kts 119°
2026-05-05 18:56 52.40836 5.01080 7774 ft 282 kts 136°
2026-05-05 18:56 52.39542 5.03184 8396 ft 284 kts 130°
2026-05-05 18:56 52.38410 5.05359 8970 ft 286 kts 128°
2026-05-05 18:57 52.37320 5.07552 9522 ft 289 kts 128°
2026-05-05 18:57 52.36148 5.09940 10103 ft 292 kts 128°
2026-05-05 18:57 52.34913 5.12466 10500 ft 303 kts 128°
2026-05-05 18:57 52.33624 5.15097 10783 ft 317 kts 128°
2026-05-05 18:58 52.32416 5.17558 11046 ft 329 kts 128°
2026-05-05 18:58 52.31149 5.20139 11294 ft 340 kts 128°
2026-05-05 18:58 52.29817 5.22850 11542 ft 352 kts 128°
2026-05-05 18:58 52.28370 5.25798 11770 ft 363 kts 128°
2026-05-05 18:59 52.26965 5.28655 12006 ft 374 kts 128°
2026-05-05 18:59 52.25515 5.31599 12201 ft 384 kts 128°
2026-05-05 18:59 52.24034 5.34606 12391 ft 394 kts 128°
2026-05-05 18:59 52.22506 5.37704 12761 ft 398 kts 128°
2026-05-05 19:00 52.20840 5.41080 13267 ft 399 kts 128°
2026-05-05 19:00 52.19407 5.43984 13667 ft 401 kts 127°
2026-05-05 19:00 52.17849 5.47138 14103 ft 403 kts 128°
2026-05-05 19:00 52.16189 5.50500 14560 ft 404 kts 128°
2026-05-05 19:01 52.14537 5.53851 15000 ft 406 kts 127°
2026-05-05 19:01 52.12783 5.57411 15443 ft 408 kts 127°
2026-05-05 19:01 52.11055 5.60924 15857 ft 410 kts 127°
2026-05-05 19:01 52.09518 5.64048 16218 ft 412 kts 127°
2026-05-05 19:02 52.07889 5.67429 16585 ft 414 kts 125°
2026-05-05 19:02 52.06624 5.71220 16879 ft 416 kts 111°
2026-05-05 19:02 52.05853 5.75261 17290 ft 417 kts 105°
2026-05-05 19:02 52.05209 5.79429 17617 ft 419 kts 103°
2026-05-05 19:03 52.04585 5.83660 17928 ft 422 kts 103°
2026-05-05 19:03 52.03893 5.88327 18288 ft 425 kts 105°
2026-05-05 19:03 52.02934 5.92351 18582 ft 427 kts 117°
2026-05-05 19:03 52.01468 5.96032 18918 ft 428 kts 126°
2026-05-05 19:04 51.99712 5.99808 19286 ft 430 kts 128°
2026-05-05 19:04 51.97787 6.03842 19643 ft 432 kts 128°
2026-05-05 19:04 51.96029 6.07525 19954 ft 434 kts 128°
2026-05-05 19:04 51.94219 6.11329 20301 ft 436 kts 128°
2026-05-05 19:05 51.92396 6.15173 20627 ft 437 kts 128°
2026-05-05 19:05 51.90448 6.19297 20961 ft 439 kts 128°
2026-05-05 19:05 51.88495 6.23440 21280 ft 441 kts 128°
2026-05-05 19:05 51.86564 6.27559 21605 ft 443 kts 128°
2026-05-05 19:06 51.84711 6.31523 21896 ft 444 kts 128°
2026-05-05 19:06 51.82728 6.35773 22194 ft 446 kts 128°
2026-05-05 19:06 51.80927 6.39651 22456 ft 448 kts 128°
2026-05-05 19:06 51.79154 6.43475 22715 ft 450 kts 128°
2026-05-05 19:07 51.77335 6.47403 22985 ft 451 kts 128°
2026-05-05 19:07 51.75312 6.51782 23283 ft 452 kts 128°
2026-05-05 19:07 51.73439 6.55845 23555 ft 454 kts 128°
2026-05-05 19:07 51.71567 6.59915 23824 ft 455 kts 128°
2026-05-05 19:08 51.69671 6.64042 24107 ft 456 kts 128°
2026-05-05 19:08 51.67726 6.68283 24488 ft 454 kts 128°
2026-05-05 19:08 51.65747 6.72598 24948 ft 452 kts 128°
2026-05-05 19:08 51.63720 6.77005 25416 ft 449 kts 128°
2026-05-05 19:09 51.61748 6.81293 25833 ft 448 kts 128°
2026-05-05 19:09 51.59810 6.85506 26239 ft 446 kts 128°
2026-05-05 19:09 51.57798 6.89881 26679 ft 444 kts 128°
2026-05-05 19:09 51.55676 6.94139 27096 ft 442 kts 132°
2026-05-05 19:10 51.53630 6.97907 27491 ft 440 kts 133°
2026-05-05 19:10 51.51416 7.01921 27899 ft 438 kts 133°
2026-05-05 19:10 51.49153 7.06014 28303 ft 437 kts 133°
2026-05-05 19:10 51.47022 7.09866 28681 ft 436 kts 133°
2026-05-05 19:11 51.44911 7.13677 29087 ft 434 kts 133°
2026-05-05 19:11 51.42779 7.17519 29469 ft 432 kts 133°
2026-05-05 19:11 51.40756 7.21152 29847 ft 430 kts 133°
2026-05-05 19:11 51.38772 7.24711 30199 ft 429 kts 133°
2026-05-05 19:12 51.36779 7.28286 30568 ft 427 kts 133°
2026-05-05 19:12 51.34738 7.31718 30853 ft 425 kts 140°
2026-05-05 19:12 51.32287 7.34510 31144 ft 422 kts 150°
2026-05-05 19:12 51.29623 7.36487 31507 ft 419 kts 158°
2026-05-05 19:13 51.26912 7.38160 31885 ft 416 kts 159°
2026-05-05 19:13 51.24229 7.39793 32184 ft 415 kts 159°
2026-05-05 19:13 51.21550 7.41428 32471 ft 413 kts 158°
2026-05-05 19:13 51.18734 7.43152 32772 ft 412 kts 159°
2026-05-05 19:14 51.16029 7.44811 33050 ft 411 kts 159°
2026-05-05 19:14 51.13435 7.46404 33274 ft 410 kts 159°
2026-05-05 19:14 51.11042 7.47872 33456 ft 410 kts 158°
2026-05-05 19:14 51.08576 7.49385 33659 ft 410 kts 158°
2026-05-05 19:15 51.05913 7.51020 33861 ft 410 kts 158°
2026-05-05 19:15 51.03329 7.52603 34008 ft 411 kts 158°
2026-05-05 19:15 51.00703 7.54209 34185 ft 410 kts 158°
2026-05-05 19:15 50.98170 7.55759 34364 ft 410 kts 158°
2026-05-05 19:16 50.95441 7.57426 34524 ft 410 kts 158°
2026-05-05 19:16 50.92931 7.58958 34656 ft 410 kts 158°
2026-05-05 19:16 50.90312 7.60552 34789 ft 410 kts 158°
2026-05-05 19:16 50.87562 7.62226 34801 ft 411 kts 158°
2026-05-05 19:17 50.82096 7.65546 34799 ft 411 kts 159°
2026-05-05 19:17 50.76730 7.68797 34791 ft 412 kts 159°
2026-05-05 19:18 50.71334 7.72058 34804 ft 412 kts 159°
2026-05-05 19:18 50.66547 7.74946 34793 ft 413 kts 159°
2026-05-05 19:19 50.61577 7.77937 34807 ft 413 kts 158°
2026-05-05 19:19 50.56546 7.80957 34803 ft 414 kts 158°
2026-05-05 19:20 50.51128 7.84205 34801 ft 413 kts 158°
2026-05-05 19:20 50.45924 7.87315 34809 ft 414 kts 159°
2026-05-05 19:21 50.40532 7.90526 34811 ft 415 kts 158°
2026-05-05 19:21 50.35511 7.93511 34806 ft 414 kts 158°
2026-05-05 19:22 50.30372 7.96558 34813 ft 414 kts 158°
2026-05-05 19:22 50.25420 7.99491 34818 ft 415 kts 158°
2026-05-05 19:23 50.20147 8.02606 34820 ft 416 kts 158°
2026-05-05 19:23 50.15176 8.05535 34830 ft 417 kts 158°
2026-05-05 19:24 50.09887 8.08645 34831 ft 416 kts 158°
2026-05-05 19:24 50.04618 8.11734 34825 ft 416 kts 158°
2026-05-05 19:25 49.99520 8.14720 34818 ft 416 kts 158°
2026-05-05 19:25 49.94318 8.17761 34820 ft 418 kts 158°
2026-05-05 19:26 49.88977 8.20872 34796 ft 420 kts 158°
2026-05-05 19:26 49.83409 8.24107 34797 ft 421 kts 158°
2026-05-05 19:27 49.77961 8.27263 34797 ft 420 kts 158°
2026-05-05 19:27 49.72403 8.30477 34794 ft 421 kts 158°
2026-05-05 19:28 49.66927 8.33634 34807 ft 421 kts 158°
2026-05-05 19:28 49.61278 8.36890 34805 ft 423 kts 159°
2026-05-05 19:29 49.55583 8.40179 34813 ft 424 kts 159°
2026-05-05 19:29 49.49786 8.43509 34817 ft 424 kts 159°
2026-05-05 19:30 49.44192 8.46709 34834 ft 424 kts 159°
2026-05-05 19:30 49.38895 8.49728 34819 ft 424 kts 159°
2026-05-05 19:31 49.33483 8.52806 34817 ft 426 kts 159°
2026-05-05 19:31 49.28252 8.55775 34821 ft 427 kts 159°
2026-05-05 19:32 49.22743 8.58507 34817 ft 427 kts 168°
2026-05-05 19:32 49.16548 8.59295 34811 ft 429 kts 176°
2026-05-05 19:33 49.10318 8.59698 34828 ft 430 kts 176°
2026-05-05 19:33 49.04383 8.60101 34698 ft 431 kts 176°
2026-05-05 19:34 49.01473 8.60303 34258 ft 430 kts 176°
2026-05-05 19:34 48.98430 8.60514 33716 ft 426 kts 176°
2026-05-05 19:34 48.95610 8.60714 33220 ft 423 kts 176°
2026-05-05 19:35 48.89858 8.61120 32207 ft 424 kts 176°
2026-05-05 19:35 48.86892 8.61332 31687 ft 424 kts 176°
2026-05-05 19:35 48.84057 8.61531 31190 ft 426 kts 176°
2026-05-05 19:35 48.81379 8.61719 30721 ft 428 kts 176°
2026-05-05 19:36 48.78711 8.61907 30187 ft 429 kts 176°
2026-05-05 19:36 48.75711 8.62122 29590 ft 430 kts 176°
2026-05-05 19:36 48.72784 8.62329 29004 ft 432 kts 176°
2026-05-05 19:36 48.69872 8.62533 28433 ft 433 kts 176°
2026-05-05 19:37 48.68938 8.62599 28251 ft 434 kts 176°
2026-05-05 19:37 48.65114 8.62869 27500 ft 436 kts 177°
2026-05-05 19:37 48.61324 8.63133 26766 ft 438 kts 177°
2026-05-05 19:37 48.58348 8.63340 26193 ft 439 kts 177°
2026-05-05 19:38 48.55538 8.63537 25656 ft 440 kts 177°
2026-05-05 19:38 48.52645 8.63739 25102 ft 442 kts 177°
2026-05-05 19:38 48.49656 8.63946 24528 ft 443 kts 177°
2026-05-05 19:38 48.46924 8.64136 24009 ft 445 kts 177°
2026-05-05 19:39 48.44221 8.64323 23501 ft 442 kts 178°
2026-05-05 19:39 48.41484 8.64393 22981 ft 439 kts 181°
2026-05-05 19:39 48.38477 8.64155 22407 ft 435 kts 185°
2026-05-05 19:39 48.35750 8.63693 21882 ft 432 kts 188°
2026-05-05 19:40 48.33935 8.63264 21531 ft 429 kts 190°
2026-05-05 19:40 48.29872 8.62042 20753 ft 424 kts 192°
2026-05-05 19:40 48.26968 8.61151 20235 ft 420 kts 192°
2026-05-05 19:40 48.24091 8.60276 19714 ft 417 kts 192°
2026-05-05 19:41 48.21312 8.59438 19212 ft 414 kts 192°
2026-05-05 19:41 48.18389 8.58559 18681 ft 410 kts 192°
2026-05-05 19:41 48.15406 8.57664 18145 ft 406 kts 192°
2026-05-05 19:41 48.12790 8.56884 17877 ft 404 kts 192°
2026-05-05 19:42 48.10493 8.56199 17861 ft 405 kts 192°
2026-05-05 19:42 48.08025 8.55464 17850 ft 405 kts 192°
2026-05-05 19:42 48.05292 8.54650 17609 ft 404 kts 192°
2026-05-05 19:42 48.02827 8.53919 17387 ft 402 kts 192°
2026-05-05 19:43 48.00260 8.53158 17155 ft 401 kts 192°
2026-05-05 19:43 47.97503 8.52389 16902 ft 400 kts 190°
2026-05-05 19:43 47.94655 8.52058 16647 ft 401 kts 182°
2026-05-05 19:43 47.91923 8.52367 16379 ft 404 kts 170°
2026-05-05 19:44 47.89316 8.53923 16121 ft 409 kts 152°
2026-05-05 19:44 47.87188 8.56543 15886 ft 414 kts 136°
2026-05-05 19:44 47.85296 8.59589 15641 ft 413 kts 135°
2026-05-05 19:44 47.83295 8.62850 15371 ft 412 kts 135°
2026-05-05 19:45 47.81377 8.65955 15124 ft 410 kts 136°
2026-05-05 19:45 47.79344 8.69218 14909 ft 408 kts 136°
2026-05-05 19:45 47.77301 8.72471 14883 ft 409 kts 136°
2026-05-05 19:45 47.75296 8.75649 14863 ft 400 kts 136°
2026-05-05 19:46 47.73354 8.78723 14862 ft 379 kts 136°
2026-05-05 19:46 47.71572 8.81540 14879 ft 361 kts 136°
2026-05-05 19:46 47.69881 8.84209 14870 ft 344 kts 136°
2026-05-05 19:46 47.68199 8.86857 14878 ft 327 kts 136°
2026-05-05 19:47 47.66787 8.89077 14872 ft 311 kts 137°
2026-05-05 19:47 47.65404 8.91249 14882 ft 296 kts 137°
2026-05-05 19:47 47.64009 8.93435 14882 ft 287 kts 137°
2026-05-05 19:47 47.62807 8.95312 14885 ft 286 kts 137°
2026-05-05 19:48 47.61554 8.97268 14896 ft 286 kts 137°
2026-05-05 19:48 47.60310 8.99211 14902 ft 287 kts 137°
2026-05-05 19:48 47.59043 9.01190 14890 ft 287 kts 137°
2026-05-05 19:48 47.57790 9.03148 14880 ft 286 kts 137°
2026-05-05 19:49 47.56598 9.05170 14902 ft 289 kts 126°
2026-05-05 19:49 47.55962 9.07701 14908 ft 297 kts 102°
2026-05-05 19:49 47.55751 9.10464 14886 ft 298 kts 98°
2026-05-05 19:49 47.55588 9.13345 14894 ft 298 kts 98°
2026-05-05 19:50 47.55405 9.16105 14909 ft 298 kts 98°
2026-05-05 19:50 47.55474 9.18919 14887 ft 302 kts 76°
2026-05-05 19:50 47.56381 9.21500 14906 ft 306 kts 47°
2026-05-05 19:50 47.58086 9.23285 14909 ft 305 kts 18°
2026-05-05 19:51 47.60065 9.23725 14916 ft 300 kts 351°
2026-05-05 19:51 47.61955 9.22869 14900 ft 291 kts 324°
2026-05-05 19:51 47.63354 9.21001 14894 ft 283 kts 300°
2026-05-05 19:51 47.64118 9.18262 14903 ft 275 kts 274°
2026-05-05 19:52 47.64017 9.15460 14895 ft 269 kts 251°
2026-05-05 19:52 47.63267 9.12955 14891 ft 267 kts 242°
2026-05-05 19:52 47.62711 9.10319 14890 ft 272 kts 264°
2026-05-05 19:52 47.63034 9.07472 14899 ft 278 kts 287°
2026-05-05 19:53 47.63712 9.04930 14910 ft 279 kts 288°
2026-05-05 19:53 47.64217 9.02437 14904 ft 274 kts 271°
2026-05-05 19:53 47.63995 8.99775 14907 ft 269 kts 246°
2026-05-05 19:53 47.62981 8.97571 14911 ft 268 kts 220°
2026-05-05 19:54 47.61441 8.96322 14898 ft 269 kts 195°
2026-05-05 19:54 47.59680 8.96218 14907 ft 275 kts 171°
2026-05-05 19:54 47.58016 8.97286 14911 ft 282 kts 146°
2026-05-05 19:54 47.57120 8.98590 14902 ft 287 kts 129°
2026-05-05 19:55 47.56159 9.02272 14622 ft 296 kts 100°
2026-05-05 19:55 47.56085 9.03281 14543 ft 296 kts 98°
2026-05-05 19:55 47.55920 9.08054 14161 ft 295 kts 95°
2026-05-05 19:55 47.55856 9.10877 13902 ft 294 kts 95°
2026-05-05 19:56 47.55793 9.13767 13666 ft 293 kts 94°
2026-05-05 19:56 47.55928 9.16553 13420 ft 296 kts 76°
2026-05-05 19:56 47.56745 9.19046 13206 ft 298 kts 52°
2026-05-05 19:56 47.58027 9.21033 12975 ft 297 kts 35°
2026-05-05 19:57 47.59824 9.22253 12751 ft 293 kts
2026-05-05 19:57 47.61678 9.22271 12523 ft 286 kts 343°
2026-05-05 19:57 47.63279 9.21238 12294 ft 278 kts 319°
2026-05-05 19:57 47.64423 9.19353 12066 ft 269 kts 294°
2026-05-05 19:58 47.64998 9.16920 11838 ft 265 kts 280°
2026-05-05 19:58 47.65371 9.14229 11573 ft 264 kts 277°
2026-05-05 19:58 47.65467 9.11606 11296 ft 259 kts 260°
2026-05-05 19:58 47.65154 9.09112 11070 ft 259 kts 255°
2026-05-05 19:59 47.64747 9.06556 10820 ft 251 kts 254°
2026-05-05 19:59 47.64336 9.04073 10579 ft 252 kts 253°
2026-05-05 19:59 47.63949 9.01759 10346 ft 247 kts 253°
2026-05-05 19:59 47.63573 8.99505 10119 ft 242 kts 253°
2026-05-05 20:00 47.63209 8.97309 9895 ft 241 kts 253°
2026-05-05 20:00 47.62834 8.95064 9664 ft 241 kts 253°
2026-05-05 20:00 47.62466 8.92888 9441 ft 239 kts 253°
2026-05-05 20:00 47.62098 8.90721 9206 ft 239 kts 253°
2026-05-05 20:01 47.61736 8.88591 8981 ft 238 kts 253°
2026-05-05 20:01 47.61371 8.86448 8931 ft 238 kts 254°
2026-05-05 20:01 47.61129 8.84341 8907 ft 239 kts 270°
2026-05-05 20:01 47.61466 8.82206 8917 ft 243 kts 288°
2026-05-05 20:02 47.62077 8.80199 8915 ft 244 kts 292°
2026-05-05 20:02 47.62751 8.78206 8901 ft 244 kts 293°
2026-05-05 20:02 47.63454 8.76170 8899 ft 246 kts 294°
2026-05-05 20:02 47.64134 8.74197 8911 ft 246 kts 294°
2026-05-05 20:03 47.64805 8.72251 8904 ft 244 kts 294°
2026-05-05 20:03 47.65478 8.70293 8910 ft 244 kts 294°
2026-05-05 20:03 47.66150 8.68322 8895 ft 242 kts 291°
2026-05-05 20:03 47.66509 8.65985 8876 ft 237 kts 264°
2026-05-05 20:04 47.66011 8.63744 8892 ft 234 kts 234°
2026-05-05 20:04 47.64779 8.62217 8895 ft 236 kts 204°
2026-05-05 20:04 47.63147 8.61872 8896 ft 242 kts 174°
2026-05-05 20:04 47.61622 8.62810 8892 ft 250 kts 144°
2026-05-05 20:05 47.60531 8.64656 8916 ft 254 kts 128°
2026-05-05 20:05 47.59677 8.66659 8919 ft 255 kts 124°
2026-05-05 20:05 47.58817 8.68819 8911 ft 255 kts 124°
2026-05-05 20:05 47.57951 8.71021 8731 ft 255 kts 124°
2026-05-05 20:06 47.57186 8.73155 8450 ft 256 kts 114°
2026-05-05 20:06 47.56704 8.75701 8157 ft 256 kts 105°
2026-05-05 20:06 47.56353 8.78264 7855 ft 254 kts 104°
2026-05-05 20:06 47.56026 8.80837 7550 ft 253 kts 104°
2026-05-05 20:07 47.55606 8.83265 7247 ft 250 kts 120°
2026-05-05 20:07 47.54657 8.85410 6933 ft 245 kts 131°
2026-05-05 20:07 47.53586 8.87385 6598 ft 243 kts 133°
2026-05-05 20:07 47.52512 8.89296 6273 ft 241 kts 135°
2026-05-05 20:08 47.51225 8.90762 5994 ft 228 kts 164°
2026-05-05 20:08 47.49729 8.91119 5849 ft 216 kts 179°
2026-05-05 20:08 47.48275 8.91099 5588 ft 213 kts 183°
2026-05-05 20:08 47.46773 8.91003 5299 ft 208 kts 183°
2026-05-05 20:09 47.45441 8.90892 5051 ft 200 kts 187°
2026-05-05 20:09 47.44251 8.90252 4984 ft 187 kts 220°
2026-05-05 20:09 47.43593 8.88667 5078 ft 191 kts 253°
2026-05-05 20:09 47.43487 8.86649 5036 ft 193 kts 270°
2026-05-05 20:10 47.43639 8.84720 5008 ft 194 kts 276°
2026-05-05 20:10 47.43821 8.82908 5017 ft 193 kts 275°
2026-05-05 20:10 47.43993 8.80935 4909 ft 191 kts 274°
2026-05-05 20:10 47.44138 8.79036 4616 ft 186 kts 274°
2026-05-05 20:11 47.44261 8.77277 4328 ft 175 kts 273°
2026-05-05 20:11 47.44364 8.75760 4094 ft 170 kts 273°
2026-05-05 20:11 47.44473 8.74140 3866 ft 167 kts 273°
2026-05-05 20:11 47.44585 8.72496 3627 ft 162 kts 273°
2026-05-05 20:12 47.44696 8.70865 3420 ft 160 kts 273°
2026-05-05 20:12 47.44798 8.69394 3235 ft 155 kts 273°
2026-05-05 20:12 47.44901 8.67908 3011 ft 152 kts 274°
2026-05-05 20:12 47.45006 8.66398 2790 ft 151 kts 274°
2026-05-05 20:13 47.45094 8.65053 2596 ft 151 kts 274°
2026-05-05 20:13 47.45192 8.63696 2417 ft 151 kts 275°
2026-05-05 20:13 47.45292 8.62347 2227 ft 150 kts 273°
2026-05-05 20:13 47.45373 8.60928 2057 ft 150 kts 275°
2026-05-05 20:14 47.45482 8.59491 1800 ft 148 kts 276°
2026-05-05 20:14 47.45579 8.58160 1611 ft 148 kts 275°
2026-05-05 20:14 47.45674 8.56824 1437 ft 147 kts 275°
2026-05-05 20:14 47.45764 8.55578 1392 ft 112 kts 275°
2026-05-05 20:15 47.45815 8.54867 1381 ft 27 kts 276°
2026-05-05 20:15 47.45825 8.54655 1383 ft 20 kts 271°
2026-05-05 20:15 47.45807 8.54455 1385 ft 19 kts 255°
2026-05-05 20:15 47.45762 8.54282 1388 ft 16 kts 243°
2026-05-05 20:16 47.45673 8.54205 1390 ft 15 kts 172°
2026-05-05 20:16 47.45608 8.54301 1390 ft 15 kts 109°
2026-05-05 20:16 47.45578 8.54436 1390 ft 15 kts 108°
2026-05-05 20:16 47.45547 8.54578 1388 ft 17 kts 108°
2026-05-05 20:17 47.45507 8.54752 1386 ft 20 kts 108°
2026-05-05 20:17 47.45462 8.54950 1384 ft 21 kts 110°
2026-05-05 20:17 47.45422 8.55115 1386 ft 15 kts 110°
2026-05-05 20:17 47.45399 8.55216 1388 ft 9 kts 109°
2026-05-05 20:18 47.45379 8.55285 1389 ft 2 kts 117°
2026-05-05 20:18 47.45375 8.55300 1389 ft 4 kts 102°
2026-05-05 20:18 47.45400 8.55364 1390 ft 9 kts 28°
2026-05-05 20:18 47.45459 8.55408 1390 ft 10 kts 27°
2026-05-05 20:19 47.45515 8.55457 1392 ft 9 kts 44°
2026-05-05 20:19 47.45522 8.55542 1394 ft 8 kts 96°
2026-05-05 20:19 47.45518 8.55611 1395 ft 6 kts 95°
2026-05-05 20:19 47.45513 8.55668 1396 ft 5 kts 96°
2026-05-05 20:20 47.45511 8.55697 1397 ft 0 kts 96°
2026-05-05 20:20 47.45511 8.55701 1397 ft 1 kts 96°
2026-05-05 20:21 47.45509 8.55736 1398 ft 5 kts 97°
2026-05-05 20:21 47.45503 8.55820 1399 ft 9 kts 96°
2026-05-05 20:21 47.45497 8.55909 1401 ft 8 kts 96°
2026-05-05 20:21 47.45492 8.55981 1403 ft 6 kts 98°
2026-05-05 20:22 47.45468 8.56010 1404 ft 5 kts 175°
2026-05-05 20:22 47.45437 8.56006 1405 ft 5 kts 187°
2026-05-05 20:22 47.45417 8.56002 1405 ft 0 kts 186°
2026-05-05 20:22 47.45415 8.56002 1405 ft 0 kts 186°